CW9274 Weather Reports


time (UTC)temp
C
wind
direction
speed
KPH
gust
KPH
rain 1hr
cm
rain 24hr
cm
rain mn
cm
humidity
%
barometer
mb
20260503051903 10 279 4.8 9.7 0.00 0.00 0.00 58 1010.6
20260503051403 10 237 3.2 4.8 0.00 0.00 0.00 62 1010.6
20260503050903 10 230 3.2 4.8 0.00 0.00 0.00 63 1010.7
20260503045403 11 207 3.2 4.8 0.00 0.00 0.00 63 1010.7
20260503044903 11 196 1.6 3.2 0.00 0.00 0.00 62 1010.6
20260503043903 11 196 1.6 3.2 0.00 0.00 0.00 62 1010.6
20260503043403 11 196 1.6 3.2 0.00 0.00 0.00 63 1010.6
20260503042903 11 196 1.6 3.2 0.00 0.00 0.00 62 1010.6
20260503042405 11 196 1.6 3.2 0.00 0.00 0.00 61 1010.6
20260503041403 11 196 1.6 4.8 0.00 0.00 0.00 61 1010.5
20260503040903 11 196 1.6 4.8 0.00 0.00 0.00 60 1010.5
20260503035903 11 195 3.2 4.8 0.00 0.00 0.00 59 1010.5
20260503035403 11 195 1.6 4.8 0.00 0.00 0.00 59 1010.5
20260503034903 11 195 0.0 3.2 0.00 0.00 0.00 59 1010.6
20260503034403 11 195 3.2 4.8 0.00 0.00 0.00 59 1010.6
20260503033903 12 195 4.8 8.0 0.00 0.00 0.00 58 1010.5
20260503033403 12 196 4.8 8.0 0.00 0.00 0.00 58 1010.4
20260503032904 12 218 4.8 8.0 0.00 0.00 0.00 58 1010.5
20260503032403 12 0 4.8 8.0 0.00 0.00 0.00 57 1010.4
20260503031404 12 0 9.7 16.1 0.00 0.00 0.00 55 1010.2
20260503030904 12 0 9.7 16.1 0.00 0.00 0.00 55 1010.2
20260503030404 13 0 11.3 19.3 0.00 0.00 0.00 54 1010.2
20260503025404 13 0 6.4 12.9 0.00 0.00 0.00 54 1010.1
20260503024903 13 0 9.7 14.5 0.00 0.00 0.00 53 1010.0
20260503024404 13 0 9.7 12.9 0.00 0.00 0.00 53 1010.0
20260503023904 13 0 9.7 19.3 0.00 0.00 0.00 52 1010.1
20260503023403 14 0 8.0 14.5 0.00 0.00 0.00 51 1010.0
20260503022403 15 0 11.3 19.3 0.00 0.00 0.00 49 1010.0
20260503021904 15 0 9.7 16.1 0.00 0.00 0.00 48 1010.0
20260503020904 15 0 9.7 19.3 0.00 0.00 0.00 47 1010.1
20260503015904 15 0 11.3 19.3 0.00 0.00 0.00 46 1010.1
20260503014904 16 13 9.7 14.5 0.00 0.00 0.00 44 1010.2
20260503014403 16 161 9.7 16.1 0.00 0.00 0.00 44 1010.3
20260503013904 16 158 9.7 16.1 0.00 0.00 0.00 44 1010.3
20260503013403 16 158 9.7 19.3 0.00 0.00 0.00 44 1010.3
20260503012904 16 92 11.3 19.3 0.00 0.00 0.00 42 1010.4
20260503012403 17 168 9.7 16.1 0.00 0.00 0.00 42 1010.4
20260503011904 17 159 9.7 16.1 0.00 0.00 0.00 42 1010.4
20260503011404 17 150 6.4 14.5 0.00 0.00 0.00 41 1010.4
20260503010904 17 139 8.0 19.3 0.00 0.00 0.00 40 1010.3
20260503010404 17 158 11.3 19.3 0.00 0.00 0.00 40 1010.4
20260503005404 17 163 6.4 11.3 0.00 0.00 0.00 39 1010.5
20260503004904 18 164 11.3 16.1 0.00 0.00 0.00 37 1010.6
20260503004403 18 136 4.8 11.3 0.00 0.00 0.00 37 1010.6
20260503003904 18 160 4.8 11.3 0.00 0.00 0.00 38 1010.7
20260503002404 18 141 6.4 14.5 0.00 0.00 0.00 37 1010.7
20260503001903 18 164 11.3 22.5 0.00 0.00 0.00 38 1010.7
20260503000904 18 129 8.0 11.3 0.00 0.00 0.00 37 1010.7
20260503000404 18 159 9.7 19.3 0.00 0.00 0.00 37 1010.8
20260502235904 18 124 4.8 11.3 0.00 0.00 0.00 37 1010.9
20260502235403 18 169 4.8 14.5 0.00 0.00 0.00 36 1010.9
20260502234404 18 129 8.0 14.5 0.00 0.00 0.00 37 1011.0
20260502233904 18 150 6.4 12.9 0.00 0.00 0.00 38 1011.1
20260502232903 18 152 8.0 16.1 0.00 0.00 0.00 35 1011.1
20260502231904 18 151 9.7 12.9 0.00 0.00 0.00 37 1011.3
20260502231404 18 142 4.8 11.3 0.00 0.00 0.00 37 1011.3
20260502230905 18 54 4.8 22.5 0.00 0.00 0.00 37 1011.4
20260502225904 18 119 4.8 12.9 0.00 0.00 0.00 37 1011.6
20260502225404 18 46 4.8 12.9 0.00 0.00 0.00 38 1011.7
20260502224904 17 145 4.8 14.5 0.00 0.00 0.00 40 1011.7
20260502224404 17 127 4.8 14.5 0.00 0.00 0.00 39 1011.8
20260502223904 18 177 8.0 16.1 0.00 0.00 0.00 37 1011.9
20260502223404 18 190 4.8 14.5 0.00 0.00 0.00 37 1012.0
20260502222904 18 158 8.0 16.1 0.00 0.00 0.00 40 1012.0
20260502222404 18 169 6.4 16.1 0.00 0.00 0.00 39 1012.1
20260502221904 17 178 8.0 19.3 0.00 0.00 0.00 39 1012.2
20260502221405 17 30 1.6 9.7 0.00 0.00 0.00 41 1012.2
20260502215900 17 188 8.0 14.5 0.00 0.00 0.00 39 1012.5
20260502215400 17 211 8.0 16.1 0.00 0.00 0.00 39 1012.5
20260502213901 17 178 9.7 19.3 0.00 0.00 0.00 41 1012.7
20260502213400 17 177 8.0 19.3 0.00 0.00 0.00 41 1012.7
20260502212900 17 173 9.7 19.3 0.00 0.00 0.00 42 1012.8
20260502212400 17 181 8.0 19.3 0.00 0.00 0.00 41 1013.0
20260502211401 16 192 8.0 12.9 0.00 0.00 0.00 43 1013.2
20260502210901 16 129 9.7 19.3 0.00 0.00 0.00 45 1013.3
20260502210401 16 186 12.9 24.1 0.00 0.00 0.00 43 1013.4
20260502205900 16 124 8.0 19.3 0.00 0.00 0.00 41 1013.5
20260502205401 16 111 8.0 16.1 0.00 0.00 0.00 43 1013.5
20260502204900 16 166 8.0 16.1 0.00 0.00 0.00 42 1013.5
20260502204400 16 188 11.3 19.3 0.00 0.00 0.00 42 1013.6
20260502203901 16 107 8.0 19.3 0.00 0.00 0.00 43 1013.6
20260502203400 16 161 9.7 14.5 0.00 0.00 0.00 44 1013.7
20260502202901 16 157 8.0 12.9 0.00 0.00 0.00 43 1013.8
20260502202400 16 153 11.3 19.3 0.00 0.00 0.00 44 1013.8
20260502201900 16 129 9.7 19.3 0.00 0.00 0.00 43 1014.0
20260502200901 16 112 4.8 14.5 0.00 0.00 0.00 45 1014.0
20260502195401 16 108 9.7 22.5 0.00 0.00 0.00 45 1014.3
20260502194400 15 141 3.2 24.1 0.00 0.00 0.00 45 1014.4
20260502193902 15 147 6.4 19.3 0.00 0.00 0.00 46 1014.5
20260502193400 15 0 8.0 19.3 0.00 0.00 0.00 46 1014.5
20260502192901 15 13 6.4 14.5 0.00 0.00 0.00 45 1014.5
20260502192401 15 2 8.0 19.3 0.00 0.00 0.00 48 1014.6
20260502191901 15 28 4.8 19.3 0.00 0.00 0.00 45 1014.7
20260502191401 15 0 8.0 16.1 0.00 0.00 0.00 48 1014.7
20260502190401 15 0 8.0 19.3 0.00 0.00 0.00 47 1014.8
20260502185901 15 3 6.4 14.5 0.00 0.00 0.00 48 1014.9
20260502185401 15 33 8.0 12.9 0.00 0.00 0.00 47 1015.1
20260502184900 15 6 11.3 24.1 0.00 0.00 0.00 47 1015.0
20260502184401 15 5 6.4 16.1 0.00 0.00 0.00 46 1015.2
20260502183901 14 7 8.0 19.3 0.00 0.00 0.00 46 1015.2
20260502183400 15 0 8.0 16.1 0.00 0.00 0.00 47 1015.2
20260502182901 14 71 4.8 14.5 0.00 0.00 0.00 48 1015.2
20260502182400 14 100 3.2 12.9 0.00 0.00 0.00 48 1015.3
20260502181901 14 94 11.3 19.3 0.00 0.00 0.00 47 1015.3
20260502181400 14 96 3.2 14.5 0.00 0.00 0.00 48 1015.4
20260502180901 14 0 4.8 19.3 0.00 0.00 0.00 50 1015.5
20260502180402 14 3 3.2 12.9 0.00 0.00 0.00 48 1015.5
20260502170401 12 0 9.7 16.1 0.00 0.00 0.00 54 1016.1
20260502163901 11 0 4.8 8.0 0.00 0.00 0.00 55 1016.4
20260502163402 11 0 3.2 8.0 0.00 0.00 0.00 56 1016.4
20260502162901 11 0 3.2 8.0 0.00 0.00 0.00 56 1016.4
20260502162401 11 0 3.2 4.8 0.00 0.00 0.00 57 1016.4
20260502161901 11 0 1.6 4.8 0.00 0.00 0.00 58 1016.4
20260502161401 10 0 3.2 4.8 0.00 0.00 0.00 58 1016.5
20260502160901 10 0 3.2 4.8 0.00 0.00 0.00 57 1016.5
20260502151901 10 3 4.8 8.0 0.00 0.00 0.00 60 1016.5
20260502151402 10 0 3.2 4.8 0.00 0.00 0.00 64 1016.5
20260502150901 9 0 3.2 4.8 0.00 0.00 0.00 65 1016.6
20260502150402 9 0 3.2 4.8 0.00 0.00 0.00 65 1016.6
20260502130402 8 0 0.0 3.2 0.00 0.00 0.00 66 1016.4
20260502123401 8 0 4.8 8.0 0.00 0.00 0.00 66 1016.2
20260502122902 8 0 4.8 8.0 0.00 0.00 0.00 65 1016.1
20260502122402 8 0 6.4 12.9 0.00 0.00 0.00 66 1016.2
20260502121902 8 0 4.8 9.7 0.00 0.00 0.00 66 1016.1
20260502120902 8 0 4.8 9.7 0.00 0.00 0.00 65 1016.0
20260502115402 8 0 4.8 9.7 0.00 0.00 0.00 65 1016.0
20260502114902 8 0 6.4 12.9 0.00 0.00 0.00 64 1016.0
20260502113402 8 0 6.4 14.5 0.00 0.00 0.00 63 1016.0
20260502111902 9 0 4.8 12.9 0.00 0.00 0.00 63 1016.1
20260502111401 9 0 8.0 12.9 0.00 0.00 0.00 64 1016.0
20260502110902 9 0 6.4 9.7 0.00 0.00 0.00 64 1016.0
20260502110402 9 0 4.8 12.9 0.00 0.00 0.00 63 1016.0
20260502105901 9 0 4.8 12.9 0.00 0.00 0.00 63 1016.0
20260502104902 9 0 4.8 9.7 0.00 0.00 0.00 62 1016.0
20260502104402 9 0 6.4 12.9 0.00 0.00 0.00 61 1016.1
20260502103901 9 0 8.0 14.5 0.00 0.00 0.00 61 1016.1
20260502103401 9 0 4.8 9.7 0.00 0.00 0.00 61 1016.1
20260502102902 9 0 3.2 4.8 0.00 0.00 0.00 60 1016.0
20260502102402 9 0 4.8 8.0 0.00 0.00 0.00 60 1016.0
20260502101902 9 0 4.8 8.0 0.00 0.00 0.00 61 1016.0
20260502101402 9 0 3.2 4.8 0.00 0.00 0.00 61 1015.9
20260502100902 9 0 3.2 4.8 0.00 0.00 0.00 62 1015.9
20260502100402 8 0 3.2 4.8 0.00 0.00 0.00 62 1015.9
20260502090402 8 0 3.2 8.0 0.00 0.00 0.00 66 1015.6
20260502071402 8 0 4.8 8.0 0.00 0.00 0.00 69 1015.6
20260502070903 8 0 4.8 8.0 0.00 0.00 0.00 69 1015.6
20260502070402 8 0 4.8 8.0 0.00 0.00 0.00 69 1015.6
20260502065903 8 0 4.8 9.7 0.00 0.00 0.00 70 1015.5
20260502064902 8 357 4.8 4.8 0.00 0.00 0.00 69 1015.6
20260502064403 8 0 3.2 4.8 0.00 0.00 0.00 69 1015.6
20260502063902 8 0 3.2 4.8 0.00 0.00 0.00 68 1015.6
20260502062903 8 0 3.2 4.8 0.00 0.00 0.00 66 1015.5
20260502062402 8 0 3.2 4.8 0.00 0.00 0.00 66 1015.5
20260502061903 9 0 4.8 8.0 0.00 0.00 0.00 65 1015.6
20260502061403 9 0 6.4 9.7 0.00 0.00 0.00 64 1015.5
20260502060902 9 0 4.8 9.7 0.00 0.00 0.00 64 1015.5
20260502060403 9 0 6.4 12.9 0.00 0.00 0.00 64 1015.5
20260502055903 10 0 3.2 4.8 0.00 0.00 0.00 63 1015.5
20260502055403 10 0 4.8 8.0 0.00 0.00 0.00 62 1015.4
20260502054902 10 0 4.8 8.0 0.00 0.00 0.00 62 1015.4
20260502054403 10 0 4.8 9.7 0.00 0.00 0.00 62 1015.4
20260502053903 10 0 4.8 9.7 0.00 0.00 0.00 62 1015.2
20260502053403 10 0 8.0 14.5 0.00 0.00 0.00 62 1015.2
20260502052903 10 0 6.4 12.9 0.00 0.00 0.00 62 1015.2
20260502052403 10 339 8.0 16.1 0.00 0.00 0.00 61 1015.1